Weather in Dolny Kubin

Slovakia     49°12′51″N   19°18′01″E
temp.,
°C
wind,
m/s
gust,
m/s
humid.,
%
clouds,
%
prec.,
mm/h
press.,
hPa
HPBL,
m
25 january, mon
mon2501:00−4wnw119392 0.2 99962
04:00−3nnw1276100 0.2 998300
07:00−3nnw2478100 0.3 998540
10:00−2nw2377100 0.1 1000551
13:00−2nw2481100 0.3 1000567
16:00−2nw2489100 0.3 1002465
19:00−3nw1589100 0.5 1003501
22:00−3nw2489100 0.1 1005444
26 january, tue
tue2601:00−4wnw2488100 0.3 1007508
04:00−4wnw129398 0.1 1008151
07:00−5wnw129299 0.3 101092
10:00−4wnw2381100 0.1 1012467
13:00−3w2382100 0.4 1012420
16:00−4w2388100 0.4 1012404
19:00−6wsw129475 0.5 101346
22:00−5sw119699 0.1 101452
27 january, wed
wed2701:00−6w119799 0.4 101536
04:00−6w119799 0.1 101521
07:00−6wsw129694 0.5 101594
10:00−4wnw258499 0.5 1015592
13:00−3nw3572100 0.7 1014920
16:00−4nw2381100 0.1 1014466
19:00−6nnw119691 0.1 101421
22:00−7nnw119785 0.0 101421
28 january, thu
thu2801:00−8ssw019642 0.0 101421
04:00−8sw11950 0.0 101221
07:00−7wsw129612 0.0 101131
10:00−4sw228854 0.1 1010200
13:00−2wsw238676 0.1 1009340
16:00−3sw1295100 0.1 100860
19:00−4ssw1297100 0.1 100745
22:00−4sse2297100 0.3 1005112
29 january, fri
fri2901:00−3sse2297100 2.0 1003126
04:00−3ssw1297100 2.2 1002134
07:00−3ssw1297100 3.0 100288
10:00−1sw239487 0.4 1002206
13:000ssw239894 1.1 1000179
16:00+1wsw31599100 7.5 9971120
19:00+1w51598100 11.9 9981206
22:000w31298100 0.7 999989